HB9HUT-13 Weather Reports


Display with metric or nautical units.
time (UTC)temp
F
wind
direction
speed
MPH
gust
MPH
rain 1hr
in
rain 24hr
in
rain mn
in
humidity
%
barometer
mb
20260506231218 45 0 0.0 0.0 0.00 0.00 0.00 47 840.5
20260506225715 45 0 0.0 0.0 0.00 0.00 0.00 48 840.6
20260506224212 45 0 0.0 0.0 0.00 0.00 0.00 47 840.7
20260506222709 45 0 0.0 0.0 0.00 0.00 0.00 47 840.6
20260506221206 45 0 0.0 0.0 0.00 0.00 0.00 47 840.6
20260506215703 45 0 0.0 0.0 0.00 0.00 0.00 47 840.5
20260506214200 46 0 0.0 0.0 0.00 0.00 0.00 47 840.5
20260506212657 46 0 0.0 0.0 0.00 0.00 0.00 47 840.5
20260506211154 46 0 0.0 0.0 0.00 0.00 0.00 48 840.5
20260506205652 46 0 0.0 0.0 0.00 0.00 0.00 47 840.5
20260506204148 46 0 0.0 0.0 0.00 0.00 0.00 47 840.4
20260506202645 46 0 0.0 0.0 0.00 0.00 0.00 48 840.4
20260506201142 47 0 0.0 0.0 0.00 0.00 0.00 47 840.3
20260506195639 47 0 0.0 0.0 0.00 0.00 0.00 47 840.2
20260506194136 47 0 0.0 0.0 0.00 0.00 0.00 47 840.0
20260506192633 47 0 0.0 0.0 0.00 0.00 0.00 47 839.8
20260506191130 48 0 0.0 0.0 0.00 0.00 0.00 46 839.7
20260506185627 48 0 0.0 0.0 0.00 0.00 0.00 47 839.4
20260506184124 49 0 0.0 0.0 0.00 0.00 0.00 47 839.3
20260506182621 49 0 0.0 0.0 0.00 0.00 0.00 47 839.2
20260506181118 50 0 0.0 0.0 0.00 0.00 0.00 48 839.0
20260506175615 51 0 0.0 0.0 0.00 0.00 0.00 48 839.0
20260506174112 51 0 0.0 0.0 0.00 0.00 0.00 49 839.0
20260506172609 51 0 0.0 0.0 0.00 0.00 0.00 48 838.9
20260506171106 52 0 0.0 0.0 0.00 0.00 0.00 49 838.8
20260506165603 52 0 0.0 0.0 0.00 0.00 0.00 48 838.6
20260506164100 52 0 0.0 0.0 0.00 0.00 0.00 47 838.6
20260506162557 52 0 0.0 0.0 0.00 0.00 0.00 47 838.6
20260506161054 51 0 0.0 0.0 0.00 0.00 0.00 47 838.4
20260506155552 51 0 0.0 0.0 0.00 0.00 0.00 48 838.6
20260506154048 51 0 0.0 0.0 0.00 0.00 0.00 48 838.4
20260506152545 51 0 0.0 0.0 0.00 0.00 0.00 49 838.6
20260506151042 52 0 0.0 0.0 0.00 0.00 0.00 47 838.5
20260506145539 52 0 0.0 0.0 0.00 0.00 0.00 46 838.7
20260506144036 52 0 0.0 0.0 0.00 0.00 0.00 46 838.6
20260506142533 53 0 0.0 0.0 0.00 0.00 0.00 46 838.4
20260506141030 54 0 0.0 0.0 0.00 0.00 0.00 46 838.3
20260506135527 55 0 0.0 0.0 0.00 0.00 0.00 47 837.9
20260506134024 56 0 0.0 0.0 0.00 0.00 0.00 46 837.9
20260506132521 57 0 0.0 0.0 0.00 0.00 0.00 45 837.8
20260506131018 58 0 0.0 0.0 0.00 0.00 0.00 46 837.8
20260506125515 59 0 0.0 0.0 0.00 0.00 0.00 45 837.6
20260506124012 60 0 0.0 0.0 0.00 0.00 0.00 45 837.4
20260506122509 60 0 0.0 0.0 0.00 0.00 0.00 45 837.2
20260506121006 60 0 0.0 0.0 0.00 0.00 0.00 45 836.9
20260506115503 60 0 0.0 0.0 0.00 0.00 0.00 45 836.8
20260506114000 61 0 0.0 0.0 0.00 0.00 0.00 44 836.8
20260506112457 61 0 0.0 0.0 0.00 0.00 0.00 44 836.7
20260506110954 62 0 0.0 0.0 0.00 0.00 0.00 45 836.8
20260506105451 62 0 0.0 0.0 0.00 0.00 0.00 45 836.8
20260506103948 62 0 0.0 0.0 0.00 0.00 0.00 44 836.7
20260506102445 62 0 0.0 0.0 0.00 0.00 0.00 45 836.6
20260506100942 62 0 0.0 0.0 0.00 0.00 0.00 45 836.7
20260506095439 61 0 0.0 0.0 0.00 0.00 0.00 44 836.7
20260506093936 60 0 0.0 0.0 0.00 0.00 0.00 45 836.6
20260506092433 59 0 0.0 0.0 0.00 0.00 0.00 45 836.6
20260506090930 56 0 0.0 0.0 0.00 0.00 0.00 46 836.5
20260506085427 54 0 0.0 0.0 0.00 0.00 0.00 45 836.4
20260506083924 53 0 0.0 0.0 0.00 0.00 0.00 45 836.6
20260506082421 51 0 0.0 0.0 0.00 0.00 0.00 45 836.6
20260506080918 51 0 0.0 0.0 0.00 0.00 0.00 45 836.7
20260506072409 49 0 0.0 0.0 0.00 0.00 0.00 45 837.0
20260506070906 48 0 0.0 0.0 0.00 0.00 0.00 44 837.0
20260506062357 47 0 0.0 0.0 0.00 0.00 0.00 43 836.9
20260506060854 47 0 0.0 0.0 0.00 0.00 0.00 44 836.8
20260506050842 46 0 0.0 0.0 0.00 0.00 0.00 44 836.9
20260506043836 46 0 0.0 0.0 0.00 0.00 0.00 44 837.1
20260506042333 46 0 0.0 0.0 0.00 0.00 0.00 44 837.3
20260506040830 46 0 0.0 0.0 0.00 0.00 0.00 45 837.4
20260506035327 46 0 0.0 0.0 0.00 0.00 0.00 48 837.6
20260506033824 46 0 0.0 0.0 0.00 0.00 0.00 44 837.8
20260506032321 46 0 0.0 0.0 0.00 0.00 0.00 44 838.1
20260506030818 47 0 0.0 0.0 0.00 0.00 0.00 44 838.3
20260506025315 47 0 0.0 0.0 0.00 0.00 0.00 44 838.4
20260506023812 47 0 0.0 0.0 0.00 0.00 0.00 44 838.5
20260506022309 47 0 0.0 0.0 0.00 0.00 0.00 44 838.6
20260506020806 47 0 0.0 0.0 0.00 0.00 0.00 48 838.8
20260506015305 47 0 0.0 0.0 0.00 0.00 0.00 44 838.8
20260506013800 47 0 0.0 0.0 0.00 0.00 0.00 44 839.1
20260506012257 47 0 0.0 0.0 0.00 0.00 0.00 45 839.1
20260506010754 47 0 0.0 0.0 0.00 0.00 0.00 44 839.2
20260506005252 48 0 0.0 0.0 0.00 0.00 0.00 45 839.3
20260506003748 48 0 0.0 0.0 0.00 0.00 0.00 45 839.5
20260506002245 48 0 0.0 0.0 0.00 0.00 0.00 44 839.4
20260506000742 48 0 0.0 0.0 0.00 0.00 0.00 44 839.7
20260505235239 48 0 0.0 0.0 0.00 0.00 0.00 43 840.0
20260505233736 48 0 0.0 0.0 0.00 0.00 0.00 43 839.9